• In Czech Republic
  • List of Countries
  • For 7 days
  • Water Temperature
  • Satellite Maps
  • Weather Map
  • Weather Widgets
  • user-avatar
    Login

    Hourly Weather Izotkino

    Today, 24 June, Sunday

    Time Temperature Precipitation Wind Pressure Humidity
    00:00 +20°C° 0.1 mm 2 mps 737 mmHg 85%
    01:00 +20°C° 0.1 mm 2 mps 737 mmHg 84%
    02:00 +20°C° 0 mm 2 mps 737 mmHg 82%
    03:00 +20°C° 0.1 mm 2 mps 737 mmHg 85%
    04:00 +20°C° 0.1 mm 3 mps 737 mmHg 87%
    05:00 +20°C° 0.1 mm 3 mps 737 mmHg 89%
    06:00 +19°C° 0.3 mm 3 mps 737 mmHg 90%
    07:00 +19°C° 0.3 mm 4 mps 738 mmHg 91%
    08:00 +19°C° 0.3 mm 4 mps 738 mmHg 92%
    09:00 +18°C° 0.8 mm 4 mps 739 mmHg 92%
    10:00 +17°C° 0.8 mm 4 mps 739 mmHg 92%
    11:00 +15°C° 0.8 mm 4 mps 740 mmHg 92%
    12:00 +15°C° 0.4 mm 4 mps 740 mmHg 91%
    13:00 +15°C° 0.4 mm 4 mps 740 mmHg 89%
    14:00 +15°C° 0.4 mm 4 mps 741 mmHg 87%
    15:00 +15°C° 0 mm 4 mps 741 mmHg 84%
    16:00 +17°C° 0 mm 4 mps 741 mmHg 82%
    17:00 +17°C° 0 mm 4 mps 742 mmHg 79%
    18:00 +16°C° 0 mm 3 mps 742 mmHg 83%
    19:00 +14°C° 0 mm 3 mps 742 mmHg 87%
    20:00 +14°C° 0 mm 2 mps 742 mmHg 91%
    21:00 +13°C° 0 mm 2 mps 743 mmHg 92%
    22:00 +13°C° 0 mm 2 mps 743 mmHg 93%
    23:00 +12°C° 0 mm 2 mps 743 mmHg 94%

    Tomorrow, 25 June, Monday

    Time Temperature Precipitation Wind Pressure Humidity
    00:00 +10°C° 0 mm 2 mps 744 mmHg 94%
    01:00 +10°C° 0 mm 2 mps 744 mmHg 94%
    02:00 +10°C° 0 mm 2 mps 744 mmHg 94%
    03:00 +10°C° 0 mm 2 mps 745 mmHg 93%
    04:00 +12°C° 0 mm 2 mps 745 mmHg 92%
    05:00 +12°C° 0 mm 2 mps 745 mmHg 91%
    06:00 +14°C° 0 mm 2 mps 745 mmHg 85%
    07:00 +16°C° 0 mm 2 mps 746 mmHg 79%
    08:00 +17°C° 0 mm 2 mps 746 mmHg 74%
    09:00 +18°C° 0 mm 2 mps 746 mmHg 69%
    10:00 +19°C° 0 mm 2 mps 746 mmHg 65%
    11:00 +20°C° 0 mm 2 mps 746 mmHg 61%
    12:00 +21°C° 0 mm 2 mps 746 mmHg 60%
    13:00 +21°C° 0 mm 2 mps 746 mmHg 59%
    14:00 +23°C° 0 mm 2 mps 746 mmHg 58%
    15:00 +23°C° 0 mm 2 mps 746 mmHg 60%
    16:00 +21°C° 0 mm 2 mps 746 mmHg 62%
    17:00 +21°C° 0 mm 2 mps 746 mmHg 64%
    18:00 +20°C° 0 mm 2 mps 747 mmHg 71%
    19:00 +19°C° 0 mm 1 mps 747 mmHg 77%
    20:00 +16°C° 0 mm 1 mps 747 mmHg 83%
    21:00 +16°C° 0 mm 1 mps 747 mmHg 84%
    22:00 +15°C° 0 mm 1 mps 748 mmHg 85%
    23:00 +14°C° 0 mm 1 mps 748 mmHg 86%

    Day after tomorrow, 26 June, Tuesday

    Time Temperature Precipitation Wind Pressure Humidity
    00:00 +14°C° 0 mm 1 mps 748 mmHg 87%
    01:00 +13°C° 0 mm 0 mps 748 mmHg 87%
    02:00 +12°C° 0 mm 0 mps 748 mmHg 88%
    03:00 +13°C° 0 mm 0 mps 748 mmHg 87%
    04:00 +14°C° 0 mm 0 mps 748 mmHg 87%
    05:00 +14°C° 0 mm 0 mps 749 mmHg 86%
    06:00 +18°C° 0 mm 1 mps 749 mmHg 81%
    07:00 +19°C° 0 mm 1 mps 749 mmHg 76%
    08:00 +20°C° 0 mm 2 mps 749 mmHg 71%
    09:00 +21°C° 0 mm 2 mps 749 mmHg 67%
    10:00 +23°C° 0 mm 2 mps 749 mmHg 62%
    11:00 +24°C° 0 mm 2 mps 749 mmHg 58%
    12:00 +24°C° 0 mm 2 mps 748 mmHg 57%
    13:00 +25°C° 0 mm 2 mps 748 mmHg 56%
    14:00 +25°C° 0 mm 2 mps 748 mmHg 55%
    15:00 +25°C° 0 mm 2 mps 748 mmHg 59%
    16:00 +25°C° 0 mm 2 mps 747 mmHg 62%
    17:00 +25°C° 0 mm 2 mps 747 mmHg 66%
    18:00 +23°C° 0 mm 2 mps 747 mmHg 71%
    19:00 +20°C° 0 mm 2 mps 747 mmHg 75%
    20:00 +19°C° 0 mm 2 mps 747 mmHg 80%
    21:00 +18°C° 0 mm 2 mps 747 mmHg 82%
    22:00 +17°C° 0 mm 2 mps 747 mmHg 84%
    23:00 +17°C° 0 mm 2 mps 747 mmHg 85%

    27 June, Wednesday

    Time Temperature Precipitation Wind Pressure Humidity
    00:00 +16°C° 0 mm 2 mps 747 mmHg 86%
    01:00 +16°C° 0 mm 2 mps 747 mmHg 87%
    02:00 +16°C° 0 mm 3 mps 747 mmHg 87%
    03:00 +16°C° 0 mm 3 mps 746 mmHg 87%
    04:00 +17°C° 0 mm 3 mps 746 mmHg 86%
    05:00 +17°C° 0 mm 3 mps 746 mmHg 86%
    06:00 +19°C° 0 mm 4 mps 746 mmHg 83%
    07:00 +21°C° 0 mm 4 mps 746 mmHg 80%
    08:00 +23°C° 0 mm 5 mps 746 mmHg 77%
    09:00 +25°C° 0 mm 5 mps 746 mmHg 74%
    10:00 +26°C° 0 mm 5 mps 746 mmHg 72%
    11:00 +27°C° 0 mm 4 mps 746 mmHg 69%
    12:00 +27°C° 0.3 mm 4 mps 746 mmHg 69%
    13:00 +28°C° 0.3 mm 4 mps 746 mmHg 69%
    14:00 +28°C° 0.3 mm 4 mps 746 mmHg 70%
    15:00 +27°C° 1 mm 4 mps 746 mmHg 73%
    16:00 +27°C° 1 mm 4 mps 746 mmHg 77%
    17:00 +26°C° 1 mm 4 mps 746 mmHg 81%
    18:00 +25°C° 2.2 mm 4 mps 746 mmHg 84%
    19:00 +23°C° 2.2 mm 4 mps 746 mmHg 86%
    20:00 +22°C° 2.2 mm 4 mps 746 mmHg 89%
    21:00 +21°C° 0.3 mm 4 mps 746 mmHg 90%
    22:00 +21°C° 0.3 mm 3 mps 746 mmHg 91%
    23:00 +21°C° 0.3 mm 3 mps 746 mmHg 93%

    28 June, Thursday

    Time Temperature Precipitation Wind Pressure Humidity
    00:00 +20°C° 0 mm 3 mps 746 mmHg 93%
    01:00 +20°C° 0 mm 3 mps 746 mmHg 94%
    02:00 +20°C° 0 mm 3 mps 747 mmHg 95%
    03:00 +20°C° 0 mm 3 mps 747 mmHg 94%
    04:00 +20°C° 0 mm 4 mps 747 mmHg 93%
    05:00 +20°C° 0 mm 4 mps 747 mmHg 93%
    06:00 +22°C° 0 mm 5 mps 747 mmHg 88%
    07:00 +23°C° 0 mm 5 mps 747 mmHg 84%
    08:00 +25°C° 0 mm 5 mps 747 mmHg 80%
    09:00 +26°C° 0 mm 5 mps 747 mmHg 77%
    10:00 +27°C° 0 mm 5 mps 747 mmHg 73%
    11:00 +28°C° 0 mm 5 mps 746 mmHg 70%
    12:00 +29°C° 0 mm 5 mps 746 mmHg 69%
    13:00 +29°C° 0 mm 5 mps 746 mmHg 68%
    14:00 +30°C° 0 mm 5 mps 746 mmHg 67%
    15:00 +29°C° 0 mm 5 mps 746 mmHg 69%
    16:00 +29°C° 0 mm 5 mps 745 mmHg 72%
    17:00 +29°C° 0 mm 4 mps 745 mmHg 75%
    18:00 +27°C° 0 mm 4 mps 745 mmHg 79%
    19:00 +26°C° 0 mm 4 mps 745 mmHg 83%
    20:00 +25°C° 0 mm 4 mps 745 mmHg 86%
    21:00 +23°C° 0 mm 4 mps 745 mmHg 87%
    22:00 +22°C° 0 mm 4 mps 745 mmHg 88%
    23:00 +22°C° 0 mm 4 mps 745 mmHg 89%

    29 June, Friday

    Time Temperature Precipitation Wind Pressure Humidity
    00:00 +22°C° 0 mm 4 mps 745 mmHg 90%
    01:00 +21°C° 0 mm 5 mps 745 mmHg 91%
    02:00 +21°C° 0 mm 5 mps 744 mmHg 91%
    03:00 +21°C° 0 mm 5 mps 744 mmHg 91%
    04:00 +21°C° 0 mm 6 mps 744 mmHg 91%
    05:00 +21°C° 0 mm 6 mps 743 mmHg 91%
    06:00 +23°C° 0 mm 6 mps 744 mmHg 87%
    07:00 +24°C° 0 mm 6 mps 744 mmHg 84%
    08:00 +26°C° 0 mm 5 mps 744 mmHg 81%
    09:00 +27°C° 1.2 mm 6 mps 743 mmHg 78%
    10:00 +28°C° 1.2 mm 6 mps 743 mmHg 75%
    11:00 +29°C° 1.2 mm 6 mps 743 mmHg 72%
    12:00 +29°C° 0.5 mm 6 mps 743 mmHg 72%
    13:00 +29°C° 0.5 mm 6 mps 743 mmHg 73%
    14:00 +29°C° 0.5 mm 7 mps 742 mmHg 73%
    15:00 +28°C° 1.6 mm 6 mps 742 mmHg 76%
    16:00 +27°C° 1.6 mm 6 mps 742 mmHg 80%
    17:00 +25°C° 1.6 mm 5 mps 742 mmHg 84%
    18:00 +25°C° 1.2 mm 5 mps 742 mmHg 86%
    19:00 +23°C° 1.2 mm 5 mps 742 mmHg 88%
    20:00 +22°C° 1.2 mm 4 mps 742 mmHg 90%
    21:00 +22°C° 0.8 mm 4 mps 741 mmHg 90%
    22:00 +22°C° 0.8 mm 4 mps 741 mmHg 90%
    23:00 +21°C° 0.8 mm 4 mps 741 mmHg 90%
    Show more